User: anonymous   Login
Location: Orange
(33.2833°S, 149.1000°E)
Time: 11:54:13
(UTC+11:00)
Language:

N. Korean satellite - Orbit

View from above orbital plane
View from above orbital plane
View from above satellite
View from above satellite

Ground track
Ground track

The orbit data is extracted from the following two-line orbital elements,

1 39026U 12072A   22023.54223537  .00007931  00000-0  25257-3 0  9996
2 39026  97.2610  16.5112 0032290 321.7267  38.1683 15.32314397506702
Epoch (UTC): 23 January 2022 13:00:49
Eccentricity: 0.0032290
inclination: 97.2610°
perigee height: 447 km
apogee height: 491 km
right ascension of ascending node: 16.5112°
argument of perigee: 321.7267°
revolutions per day: 15.32314397
mean anomaly at epoch: 38.1683°
orbit number at epoch: 50670

The dashed part of the orbit path shows where the satellite is in the earth's shadow,  

DLR